Oceana NAS, VA

5:24 PM EDT on September 26, 2017 (GMT -0400)
Oceana Naval Air Station

Weather History for KNTU - February, 2013

Change the Weather History Date:

Monday, February 4, 2013

  Actual Average Record
Temperature  
Mean Temperature 36 °F -  
Max Temperature 43 °F 48 °F 68 °F (2008)
Min Temperature 28 °F 32 °F 28 °F (2001)
Degree Days  
Heating Degree Days 30    
Moisture  
Dew Point 21 °F    
Average Humidity 52    
Maximum Humidity 64    
Minimum Humidity 40    
Precipitation  
Precipitation 0.00 in - - ()
Sea Level Pressure  
Sea Level Pressure 30.05 in    
Wind  
Wind Speed 10 mph (West)    
Max Wind Speed 15 mph    
Max Gust Speed 22 mph    
Visibility 10 miles    
Events      
Averages and records for this station are not official NWS values.
T = Trace of Precipitation, MM = Missing Value Source: NWS Daily Summary

Daily Weather History Graph

Daily Weather History Graph

Search for Another Location

Airport or City:

Trip Planner

Search our weather history database for the weather conditions in past years. The results will help you decide how hot, cold, wet, or windy it might be!

Date:

Astronomy

Feb. 04, 2013 Rise Set
Actual Time 7:03 AM EST 5:33 PM EST
Civil Twilight 6:36 AM EST 6:00 PM EST
Nautical Twilight 6:05 AM EST 6:31 PM EST
Astronomical Twilight 5:35 AM EST 7:01 PM EST
Moon 1:34 AM EST (2/4) 11:57 AM EST (2/4)
Length of Visible Light 11h 23m
Length of Day
10h 29m
Last Quarter, 37% of the Moon is Illuminated
Feb 4
Last Quarter
Feb 10
New
Feb 17
First Quarter
Feb 25
Full
Mar 4
Last Quarter

Hourly Weather History & Observations

Time (EST) Temp. Windchill Dew Point Humidity Pressure Visibility Wind Dir Wind Speed Gust Speed Precip Events Conditions
12:56 AM 36.0 °F 26.7 °F 23.0 °F 59% 29.95 in 10.0 mi WNW 15.0 mph 20.7 mph N/A   Clear
1:56 AM 36.0 °F 28.0 °F 21.0 °F 55% 29.97 in 10.0 mi NW 11.5 mph - N/A   Clear
2:56 AM 36.0 °F 27.1 °F 17.1 °F 46% 29.99 in 10.0 mi NW 13.8 mph 21.9 mph N/A   Clear
3:56 AM 34.0 °F 25.5 °F 18.0 °F 52% 30.01 in 10.0 mi NW 11.5 mph - N/A   Partly Cloudy
5:56 AM 30.0 °F 23.2 °F 19.0 °F 64% 30.06 in 10.0 mi NNW 6.9 mph - N/A   Partly Cloudy
6:56 AM 28.0 °F 21.7 °F 17.1 °F 63% 30.09 in 10.0 mi NNW 5.8 mph - N/A   Scattered Clouds
7:56 AM 32.0 °F 26.4 °F 21.0 °F 64% 30.11 in 10.0 mi NNE 5.8 mph - N/A   Mostly Cloudy
8:56 AM 34.0 °F 26.6 °F 19.0 °F 54% 30.14 in 10.0 mi NNE 9.2 mph - N/A   Mostly Cloudy
9:56 AM 36.0 °F 30.3 °F 19.0 °F 50% 30.14 in 10.0 mi NNE 6.9 mph - N/A   Mostly Cloudy
10:56 AM 37.0 °F 33.3 °F 19.0 °F 48% 30.14 in 10.0 mi North 4.6 mph - N/A   Overcast
11:56 AM 39.0 °F 35.7 °F 19.0 °F 45% 30.12 in 10.0 mi NNW 4.6 mph - N/A   Mostly Cloudy
12:56 PM 39.0 °F 35.7 °F 18.0 °F 43% 30.09 in 10.0 mi SW 4.6 mph - N/A   Mostly Cloudy
1:56 PM 39.0 °F 32.3 °F 21.9 °F 50% 30.08 in 10.0 mi East 10.4 mph - N/A   Mostly Cloudy
2:56 PM 39.9 °F 35.1 °F 23.0 °F 51% 30.07 in 10.0 mi East 6.9 mph - N/A   Mostly Cloudy
3:56 PM 41.0 °F 36.4 °F 25.0 °F 53% 30.06 in 10.0 mi SE 6.9 mph - N/A   Overcast
4:56 PM 43.0 °F 38.2 °F 19.9 °F 40% 30.04 in 10.0 mi SSW 8.1 mph - N/A   Mostly Cloudy
5:56 PM 41.0 °F 36.4 °F 19.9 °F 43% 30.02 in 10.0 mi South 6.9 mph - N/A   Overcast
6:56 PM 39.9 °F 32.9 °F 21.9 °F 49% 30.02 in 10.0 mi SSW 11.5 mph - N/A   Overcast
7:56 PM 41.0 °F 34.7 °F 21.0 °F 45% 30.03 in 10.0 mi SSW 10.4 mph - N/A   Overcast
8:56 PM 39.0 °F 32.8 °F 21.9 °F 50% 30.03 in 10.0 mi South 9.2 mph - N/A   Mostly Cloudy
9:56 PM 39.9 °F 33.9 °F 24.1 °F 53% 30.02 in 10.0 mi South 9.2 mph - N/A   Mostly Cloudy
10:56 PM 39.0 °F 33.4 °F 25.0 °F 57% 30.02 in 10.0 mi South 8.1 mph - N/A   Mostly Cloudy
11:56 PM 39.0 °F 33.4 °F 26.1 °F 60% 30.01 in 10.0 mi SSW 8.1 mph - N/A   Mostly Cloudy